Voltar ao catálogo

GALILEO 30

10E

AtivoNavegaçãoMEO
NORAD 59600·PAYLOAD·🇪🇺 EU

Lançado Apr 28, 2024 de Cape Canaveral Space Force Station

Loading…

Próximas Passagens (próximas 24 horas)

TLE

AtualizadoSource: CelesTrak SupGP

Época: Sep 13, 2026, 23:59 UTC

1 59600C 24079C   26256.99979167  .00000000  00000+0  00000+0 0  2564
2 59600  55.1722  98.5945 0004181  95.0682 164.3879  1.70474437    14

Acompanhe GALILEO 30 em tempo real com AllMySat

Download on the App Store